Time,TemperatureF,DewpointF,PressureIn,WindDirection,WindDirectionDegrees,WindSpeedMPH,WindSpeedGustMPH,Humidity,HourlyPrecipIn,Conditions,Clouds,dailyrainin,SolarRadiationWatts/m^2,SoftwareType,DateUTC
2013-10-03 00:00:00,60.5,45.6,30.04,North,3,2.0,2.0,58,0.00,,,0.00,0,Wunderground v.1.15,2013-10-03 07:00:00,
2013-10-03 00:09:00,60.7,45.8,30.04,North,2,1.0,1.0,58,0.00,,,0.00,0,Wunderground v.1.15,2013-10-03 07:09:00,
2013-10-03 00:19:00,60.4,44.6,30.04,North,2,1.0,5.0,56,0.00,,,0.00,0,Wunderground v.1.15,2013-10-03 07:19:00,
2013-10-03 00:24:00,60.4,44.2,30.04,North,357,4.0,10.0,55,0.00,,,0.00,0,Wunderground v.1.15,2013-10-03 07:24:00,
2013-10-03 00:34:00,60.5,44.2,30.04,North,357,5.0,7.0,55,0.00,,,0.00,0,Wunderground v.1.15,2013-10-03 07:34:00,
2013-10-03 00:39:00,60.6,44.3,30.04,NNW,338,5.0,5.0,55,0.00,,,0.00,0,Wunderground v.1.15,2013-10-03 07:39:00,
2013-10-03 00:49:00,60.4,46.0,30.04,NNW,330,6.0,9.0,59,0.00,,,0.00,0,Wunderground v.1.15,2013-10-03 07:49:00,
2013-10-03 00:54:00,59.9,45.5,30.04,NNW,336,6.0,10.0,59,0.00,,,0.00,0,Wunderground v.1.15,2013-10-03 07:54:00,
2013-10-03 01:04:00,59.6,45.2,30.04,NNW,340,6.0,7.0,59,0.00,,,0.00,0,Wunderground v.1.15,2013-10-03 08:04:00,
2013-10-03 01:09:00,59.4,45.5,30.04,North,357,5.0,5.0,60,0.00,,,0.00,0,Wunderground v.1.15,2013-10-03 08:09:00,
2013-10-03 01:19:00,59.1,44.8,30.05,NNE,16,6.0,6.0,59,0.00,,,0.00,0,Wunderground v.1.15,2013-10-03 08:19:00,
2013-10-03 01:24:00,59.1,44.3,30.05,North,10,6.0,8.0,58,0.00,,,0.00,0,Wunderground v.1.15,2013-10-03 08:24:00,
2013-10-03 01:29:00,59.2,44.4,30.05,North,6,6.0,6.0,58,0.00,,,0.00,0,Wunderground v.1.15,2013-10-03 08:29:00,
2013-10-03 01:39:00,59.1,44.3,30.05,NNE,12,2.0,2.0,58,0.00,,,0.00,0,Wunderground v.1.15,2013-10-03 08:39:00,
2013-10-03 01:44:00,58.9,44.1,30.06,NNE,13,1.0,2.0,58,0.00,,,0.00,0,Wunderground v.1.15,2013-10-03 08:44:00,
2013-10-03 01:54:00,58.7,44.4,30.06,North,6,4.0,5.0,59,0.00,,,0.00,0,Wunderground v.1.15,2013-10-03 08:54:00,
2013-10-03 01:59:00,58.7,44.4,30.06,North,11,5.0,7.0,59,0.00,,,0.00,0,Wunderground v.1.15,2013-10-03 08:59:00,
2013-10-03 02:30:00,58.6,44.3,30.06,North,1,6.0,10.0,59,0.00,,,0.00,0,Wunderground v.1.15,2013-10-03 09:30:00,
2013-10-03 02:39:00,58.7,44.4,30.06,NNW,336,3.0,10.0,59,0.00,,,0.00,0,Wunderground v.1.15,2013-10-03 09:39:00,
2013-10-03 03:04:00,58.4,44.1,30.06,North,353,4.0,5.0,59,0.00,,,0.00,0,Wunderground v.1.15,2013-10-03 10:04:00,
2013-10-03 03:09:00,58.5,44.2,30.06,North,359,6.0,9.0,59,0.00,,,0.00,0,Wunderground v.1.15,2013-10-03 10:09:00,
2013-10-03 03:14:00,58.6,44.3,30.07,North,10,7.0,7.0,59,0.00,,,0.00,0,Wunderground v.1.15,2013-10-03 10:14:00,
2013-10-03 03:24:00,58.6,43.9,30.06,North,7,7.0,7.0,58,0.00,,,0.00,0,Wunderground v.1.15,2013-10-03 10:24:00,
2013-10-03 03:29:00,58.6,44.3,30.06,North,2,6.0,7.0,59,0.00,,,0.00,0,Wunderground v.1.15,2013-10-03 10:29:00,
2013-10-03 03:39:00,58.4,44.1,30.06,North,6,5.0,8.0,59,0.00,,,0.00,0,Wunderground v.1.15,2013-10-03 10:39:00,
2013-10-03 03:44:00,58.4,44.1,30.06,North,359,6.0,11.0,59,0.00,,,0.00,0,Wunderground v.1.15,2013-10-03 10:44:00,
2013-10-03 03:54:00,58.5,43.8,30.06,NNE,15,8.0,8.0,58,0.00,,,0.00,0,Wunderground v.1.15,2013-10-03 10:54:00,
2013-10-03 03:59:00,58.5,43.3,30.06,NNE,12,9.0,9.0,57,0.00,,,0.00,0,Wunderground v.1.15,2013-10-03 10:59:00,
2013-10-03 04:09:00,58.6,43.4,30.06,North,10,9.0,9.0,57,0.00,,,0.00,0,Wunderground v.1.15,2013-10-03 11:09:00,
2013-10-03 04:14:00,58.5,43.8,30.07,North,11,8.0,9.0,58,0.00,,,0.00,0,Wunderground v.1.15,2013-10-03 11:14:00,
2013-10-03 04:19:00,58.4,44.1,30.06,NNE,14,6.0,7.0,59,0.00,,,0.00,0,Wunderground v.1.15,2013-10-03 11:19:00,
2013-10-03 04:29:00,58.2,43.9,30.06,NNE,17,9.0,11.0,59,0.00,,,0.00,0,Wunderground v.1.15,2013-10-03 11:29:00,
2013-10-03 04:34:00,58.2,43.5,30.07,North,3,10.0,11.0,58,0.00,,,0.00,0,Wunderground v.1.15,2013-10-03 11:34:00,
2013-10-03 04:44:00,58.1,43.8,30.06,North,5,9.0,11.0,59,0.00,,,0.00,0,Wunderground v.1.15,2013-10-03 11:44:00,
2013-10-03 04:49:00,58.0,43.7,30.06,North,10,8.0,8.0,59,0.00,,,0.00,0,Wunderground v.1.15,2013-10-03 11:49:00,
2013-10-03 04:54:00,57.9,43.7,30.06,North,1,7.0,8.0,59,0.00,,,0.00,0,Wunderground v.1.15,2013-10-03 11:54:00,
2013-10-03 05:04:00,57.7,43.5,30.06,North,3,7.0,7.0,59,0.00,,,0.00,0,Wunderground v.1.15,2013-10-03 12:04:00,
2013-10-03 05:09:00,57.6,43.4,30.06,NNE,15,7.0,8.0,59,0.00,,,0.00,0,Wunderground v.1.15,2013-10-03 12:09:00,
2013-10-03 05:19:00,57.5,43.3,30.06,NNE,16,7.0,7.0,59,0.00,,,0.00,0,Wunderground v.1.15,2013-10-03 12:19:00,
2013-10-03 05:24:00,57.5,43.3,30.06,NNE,20,7.0,10.0,59,0.00,,,0.00,0,Wunderground v.1.15,2013-10-03 12:24:00,
2013-10-03 05:29:00,57.5,43.7,30.06,NNE,28,8.0,8.0,60,0.00,,,0.00,0,Wunderground v.1.15,2013-10-03 12:29:00,
2013-10-03 05:39:00,57.3,43.5,30.07,North,1,8.0,9.0,60,0.00,,,0.00,0,Wunderground v.1.15,2013-10-03 12:39:00,
2013-10-03 05:44:00,57.3,43.5,30.07,NNE,23,8.0,11.0,60,0.00,,,0.00,0,Wunderground v.1.15,2013-10-03 12:44:00,
2013-10-03 05:54:00,57.1,42.9,30.07,NNE,16,8.0,8.0,59,0.00,,,0.00,0,Wunderground v.1.15,2013-10-03 12:54:00,
2013-10-03 05:59:00,57.1,42.9,30.07,NNE,27,8.0,8.0,59,0.00,,,0.00,0,Wunderground v.1.15,2013-10-03 12:59:00,
2013-10-03 06:04:00,57.0,42.8,30.07,North,8,7.0,9.0,59,0.00,,,0.00,0,Wunderground v.1.15,2013-10-03 13:04:00,
2013-10-03 06:14:00,56.9,42.7,30.07,NNE,21,8.0,8.0,59,0.00,,,0.00,0,Wunderground v.1.15,2013-10-03 13:14:00,
2013-10-03 06:24:00,56.8,42.6,30.08,North,359,8.0,12.0,59,0.00,,,0.00,0,Wunderground v.1.15,2013-10-03 13:24:00,
2013-10-03 06:29:00,56.8,42.6,30.08,North,10,9.0,9.0,59,0.00,,,0.00,0,Wunderground v.1.15,2013-10-03 13:29:00,
2013-10-03 06:39:00,56.8,42.6,30.08,North,6,8.0,10.0,59,0.00,,,0.00,0,Wunderground v.1.15,2013-10-03 13:39:00,
2013-10-03 06:44:00,56.7,43.0,30.08,NNE,18,7.0,10.0,60,0.00,,,0.00,0,Wunderground v.1.15,2013-10-03 13:44:00,
2013-10-03 06:54:00,56.5,42.8,30.08,NNE,20,6.0,7.0,60,0.00,,,0.00,0,Wunderground v.1.15,2013-10-03 13:54:00,
2013-10-03 06:59:00,56.4,42.2,30.08,NNE,17,6.0,6.0,59,0.00,,,0.00,0,Wunderground v.1.15,2013-10-03 13:59:00,
2013-10-03 07:09:00,56.2,42.5,30.08,NNE,23,6.0,6.0,60,0.00,,,0.00,5,Wunderground v.1.15,2013-10-03 14:09:00,
2013-10-03 07:14:00,56.3,42.6,30.08,NNE,16,6.0,6.0,60,0.00,,,0.00,7,Wunderground v.1.15,2013-10-03 14:14:00,
2013-10-03 07:24:00,56.4,42.2,30.09,NNE,18,6.0,6.0,59,0.00,,,0.00,12,Wunderground v.1.15,2013-10-03 14:24:00,
2013-10-03 07:29:00,56.9,42.7,30.09,North,9,6.0,6.0,59,0.00,,,0.00,19,Wunderground v.1.15,2013-10-03 14:29:00,
2013-10-03 07:39:00,58.1,43.4,30.09,North,359,5.0,8.0,58,0.00,,,0.00,37,Wunderground v.1.15,2013-10-03 14:39:00,
2013-10-03 07:44:00,58.7,43.0,30.09,NNE,20,6.0,8.0,56,0.00,,,0.00,51,Wunderground v.1.15,2013-10-03 14:44:00,
2013-10-03 07:54:00,59.8,43.1,30.10,North,11,7.0,11.0,54,0.00,,,0.00,84,Wunderground v.1.15,2013-10-03 14:54:00,
2013-10-03 07:59:00,60.2,43.0,30.10,North,10,7.0,7.0,53,0.00,,,0.00,102,Wunderground v.1.15,2013-10-03 14:59:00,
2013-10-03 08:04:00,60.6,43.4,30.10,NNE,22,7.0,8.0,53,0.00,,,0.00,123,Wunderground v.1.15,2013-10-03 15:04:00,
2013-10-03 08:14:00,61.1,43.3,30.10,North,8,8.0,10.0,52,0.00,,,0.00,160,Wunderground v.1.15,2013-10-03 15:14:00,
2013-10-03 08:19:00,61.4,43.1,30.10,North,3,7.0,7.0,51,0.00,,,0.00,178,Wunderground v.1.15,2013-10-03 15:19:00,
2013-10-03 08:29:00,62.1,43.7,30.10,NNE,13,7.0,8.0,51,0.00,,,0.00,211,Wunderground v.1.15,2013-10-03 15:29:00,
2013-10-03 08:39:00,62.9,43.4,30.10,North,359,7.0,11.0,49,0.00,,,0.00,244,Wunderground v.1.15,2013-10-03 15:39:00,
2013-10-03 08:44:00,63.1,43.1,30.11,NNE,17,7.0,11.0,48,0.00,,,0.00,262,Wunderground v.1.15,2013-10-03 15:44:00,
2013-10-03 08:49:00,63.2,42.6,30.11,North,7,8.0,8.0,47,0.00,,,0.00,278,Wunderground v.1.15,2013-10-03 15:49:00,
2013-10-03 08:59:00,63.4,43.4,30.11,North,10,8.0,9.0,48,0.00,,,0.00,309,Wunderground v.1.15,2013-10-03 15:59:00,
2013-10-03 09:04:00,63.7,44.2,30.10,North,1,7.0,9.0,49,0.00,,,0.00,325,Wunderground v.1.15,2013-10-03 16:04:00,
2013-10-03 09:09:00,64.1,44.0,30.10,NNE,31,7.0,8.0,48,0.00,,,0.00,341,Wunderground v.1.15,2013-10-03 16:09:00,
2013-10-03 09:19:00,64.1,43.4,30.10,NNE,24,9.0,10.0,47,0.00,,,0.00,373,Wunderground v.1.15,2013-10-03 16:19:00,
2013-10-03 09:24:00,64.1,43.4,30.10,North,358,9.0,10.0,47,0.00,,,0.00,388,Wunderground v.1.15,2013-10-03 16:24:00,
2013-10-03 09:34:00,64.2,44.1,30.11,NNE,33,9.0,9.0,48,0.00,,,0.00,417,Wunderground v.1.15,2013-10-03 16:34:00,
2013-10-03 09:39:00,64.5,43.8,30.11,NNE,16,10.0,10.0,47,0.00,,,0.00,431,Wunderground v.1.15,2013-10-03 16:39:00,
2013-10-03 09:49:00,64.4,43.7,30.11,North,3,11.0,15.0,47,0.00,,,0.00,461,Wunderground v.1.15,2013-10-03 16:49:00,
2013-10-03 09:54:00,64.5,43.8,30.11,North,1,11.0,15.0,47,0.00,,,0.00,476,Wunderground v.1.15,2013-10-03 16:54:00,
2013-10-03 10:04:00,65.1,43.8,30.11,North,359,10.0,11.0,46,0.00,,,0.00,501,Wunderground v.1.15,2013-10-03 17:04:00,
2013-10-03 10:09:00,65.4,43.5,30.11,NNE,26,10.0,11.0,45,0.00,,,0.00,513,Wunderground v.1.15,2013-10-03 17:09:00,
2013-10-03 10:19:00,66.2,43.0,30.11,North,10,8.0,11.0,43,0.00,,,0.00,540,Wunderground v.1.15,2013-10-03 17:19:00,
2013-10-03 10:24:00,66.4,43.8,30.10,NNE,14,9.0,11.0,44,0.00,,,0.00,554,Wunderground v.1.15,2013-10-03 17:24:00,
2013-10-03 10:34:00,67.0,42.5,30.10,North,358,9.0,9.0,41,0.00,,,0.00,575,Wunderground v.1.15,2013-10-03 17:34:00,
2013-10-03 10:39:00,67.4,42.9,30.10,NE,35,8.0,8.0,41,0.00,,,0.00,587,Wunderground v.1.15,2013-10-03 17:39:00,
2013-10-03 10:44:00,67.7,42.5,30.10,North,5,8.0,8.0,40,0.00,,,0.00,601,Wunderground v.1.15,2013-10-03 17:44:00,
2013-10-03 10:54:00,67.9,43.3,30.09,North,3,7.0,8.0,41,0.00,,,0.00,622,Wunderground v.1.15,2013-10-03 17:54:00,
2013-10-03 10:59:00,68.6,42.6,30.09,NNE,23,6.0,10.0,39,0.00,,,0.00,633,Wunderground v.1.15,2013-10-03 17:59:00,
2013-10-03 11:09:00,69.4,42.0,30.09,NNE,17,6.0,10.0,37,0.00,,,0.00,650,Wunderground v.1.15,2013-10-03 18:09:00,
2013-10-03 11:14:00,69.9,41.0,30.08,North,9,6.0,10.0,35,0.00,,,0.00,661,Wunderground v.1.15,2013-10-03 18:14:00,
2013-10-03 11:19:00,70.5,40.8,30.08,NNE,17,6.0,6.0,34,0.00,,,0.00,670,Wunderground v.1.15,2013-10-03 18:19:00,
2013-10-03 11:29:00,71.4,40.0,30.08,NNE,18,6.0,6.0,32,0.00,,,0.00,686,Wunderground v.1.15,2013-10-03 18:29:00,
2013-10-03 11:39:00,71.5,38.4,30.08,NNW,348,7.0,7.0,30,0.00,,,0.00,700,Wunderground v.1.15,2013-10-03 18:39:00,
2013-10-03 11:44:00,71.2,39.0,30.08,NE,35,8.0,11.0,31,0.00,,,0.00,707,Wunderground v.1.15,2013-10-03 18:44:00,
2013-10-03 11:54:00,71.8,39.5,30.08,NNE,14,6.0,7.0,31,0.00,,,0.00,719,Wunderground v.1.15,2013-10-03 18:54:00,
2013-10-03 11:59:00,71.9,37.9,30.08,North,3,7.0,7.0,29,0.00,,,0.00,726,Wunderground v.1.15,2013-10-03 18:59:00,
2013-10-03 12:04:00,71.4,38.3,30.07,North,351,8.0,9.0,30,0.00,,,0.00,731,Wunderground v.1.15,2013-10-03 19:04:00,
2013-10-03 12:14:00,70.5,39.2,30.07,North,353,6.0,7.0,32,0.00,,,0.00,740,Wunderground v.1.15,2013-10-03 19:14:00,
2013-10-03 12:19:00,71.1,38.9,30.07,NNW,347,5.0,5.0,31,0.00,,,0.00,742,Wunderground v.1.15,2013-10-03 19:19:00,
2013-10-03 12:29:00,70.1,38.9,30.06,NNW,327,4.0,4.0,32,0.00,,,0.00,751,Wunderground v.1.15,2013-10-03 19:29:00,
2013-10-03 12:34:00,70.8,38.7,30.06,NW,318,3.0,5.0,31,0.00,,,0.00,751,Wunderground v.1.15,2013-10-03 19:34:00,
2013-10-03 12:39:00,71.5,39.3,30.05,NNW,341,5.0,9.0,31,0.00,,,0.00,754,Wunderground v.1.15,2013-10-03 19:39:00,
2013-10-03 12:49:00,72.4,39.2,30.05,North,9,8.0,8.0,30,0.00,,,0.00,758,Wunderground v.1.15,2013-10-03 19:49:00,
2013-10-03 12:54:00,73.1,38.9,30.05,NNW,341,6.0,11.0,29,0.00,,,0.00,759,Wunderground v.1.15,2013-10-03 19:54:00,
2013-10-03 13:04:00,73.7,38.6,30.04,North,349,6.0,11.0,28,0.00,,,0.00,756,Wunderground v.1.15,2013-10-03 20:04:00,
2013-10-03 13:09:00,73.5,37.5,30.04,North,358,6.0,6.0,27,0.00,,,0.00,759,Wunderground v.1.15,2013-10-03 20:09:00,
2013-10-03 13:19:00,70.3,44.2,30.03,West,262,5.0,11.0,39,0.00,,,0.00,759,Wunderground v.1.15,2013-10-03 20:19:00,
2013-10-03 13:24:00,67.0,42.5,30.03,West,269,8.0,12.0,41,0.00,,,0.00,758,Wunderground v.1.15,2013-10-03 20:24:00,
2013-10-03 13:34:00,67.9,42.7,30.02,WNW,289,8.0,12.0,40,0.00,,,0.00,752,Wunderground v.1.15,2013-10-03 20:34:00,
2013-10-03 13:39:00,68.3,42.4,30.02,WNW,284,9.0,11.0,39,0.00,,,0.00,752,Wunderground v.1.15,2013-10-03 20:39:00,
2013-10-03 13:49:00,68.6,42.0,30.01,WNW,282,10.0,10.0,38,0.00,,,0.00,740,Wunderground v.1.15,2013-10-03 20:49:00,
2013-10-03 13:54:00,69.6,42.9,30.01,West,280,9.0,10.0,38,0.00,,,0.00,738,Wunderground v.1.15,2013-10-03 20:54:00,
2013-10-03 13:59:00,69.7,42.3,30.01,WSW,249,7.0,10.0,37,0.00,,,0.00,735,Wunderground v.1.15,2013-10-03 20:59:00,
2013-10-03 14:09:00,69.1,44.4,30.01,West,280,7.0,7.0,41,0.00,,,0.00,726,Wunderground v.1.15,2013-10-03 21:09:00,
2013-10-03 14:14:00,70.4,37.5,30.00,NNW,336,6.0,8.0,30,0.00,,,0.00,721,Wunderground v.1.15,2013-10-03 21:14:00,
2013-10-03 14:24:00,71.3,43.0,30.00,WNW,288,5.0,5.0,36,0.00,,,0.00,708,Wunderground v.1.15,2013-10-03 21:24:00,
2013-10-03 14:29:00,70.8,43.2,30.00,WNW,303,5.0,5.0,37,0.00,,,0.00,701,Wunderground v.1.15,2013-10-03 21:29:00,
2013-10-03 14:39:00,69.7,46.2,30.00,NNW,327,5.0,5.0,43,0.00,,,0.00,687,Wunderground v.1.15,2013-10-03 21:39:00,
2013-10-03 14:44:00,69.7,44.3,30.00,North,350,5.0,10.0,40,0.00,,,0.00,682,Wunderground v.1.15,2013-10-03 21:44:00,
2013-10-03 14:54:00,73.2,48.7,30.00,SSW,213,7.0,10.0,42,0.00,,,0.00,657,Wunderground v.1.15,2013-10-03 21:54:00,
2013-10-03 14:59:00,68.8,52.0,29.99,South,186,5.0,9.0,55,0.00,,,0.00,654,Wunderground v.1.15,2013-10-03 21:59:00,
2013-10-03 15:09:00,68.3,48.9,30.00,WSW,245,5.0,5.0,50,0.00,,,0.00,633,Wunderground v.1.15,2013-10-03 22:09:00,
2013-10-03 15:14:00,69.5,46.0,29.99,WSW,240,2.0,5.0,43,0.00,,,0.00,624,Wunderground v.1.15,2013-10-03 22:14:00,
2013-10-03 15:19:00,69.2,46.9,29.99,West,266,2.0,2.0,45,0.00,,,0.00,610,Wunderground v.1.15,2013-10-03 22:19:00,
2013-10-03 15:29:00,68.7,48.8,29.99,SW,218,5.0,5.0,49,0.00,,,0.00,587,Wunderground v.1.15,2013-10-03 22:29:00,
2013-10-03 15:39:00,68.2,52.4,29.99,WSW,243,6.0,6.0,57,0.00,,,0.00,568,Wunderground v.1.15,2013-10-03 22:39:00,
2013-10-03 15:44:00,67.2,52.8,29.99,WSW,241,6.0,6.0,60,0.00,,,0.00,554,Wunderground v.1.15,2013-10-03 22:44:00,
2013-10-03 15:49:00,67.1,51.8,29.99,WSW,255,4.0,9.0,58,0.00,,,0.00,543,Wunderground v.1.15,2013-10-03 22:49:00,
2013-10-03 15:59:00,69.4,38.2,29.99,NE,48,4.0,4.0,32,0.00,,,0.00,520,Wunderground v.1.15,2013-10-03 22:59:00,
2013-10-03 16:09:00,75.7,34.1,29.98,NNE,33,10.0,10.0,22,0.00,,,0.00,492,Wunderground v.1.15,2013-10-03 23:09:00,
2013-10-03 16:14:00,76.8,32.7,29.98,ENE,70,12.0,18.0,20,0.00,,,0.00,478,Wunderground v.1.15,2013-10-03 23:14:00,
2013-10-03 16:24:00,77.1,32.9,29.98,ENE,58,13.0,17.0,20,0.00,,,0.00,452,Wunderground v.1.15,2013-10-03 23:24:00,
2013-10-03 16:29:00,76.9,31.5,29.98,ENE,62,14.0,14.0,19,0.00,,,0.00,436,Wunderground v.1.15,2013-10-03 23:29:00,
2013-10-03 16:34:00,77.0,31.6,29.98,NNE,19,13.0,18.0,19,0.00,,,0.00,422,Wunderground v.1.15,2013-10-03 23:34:00,
2013-10-03 16:44:00,76.9,31.5,29.97,NE,53,13.0,13.0,19,0.00,,,0.00,390,Wunderground v.1.15,2013-10-03 23:44:00,
2013-10-03 16:49:00,77.1,31.6,29.97,NE,41,12.0,18.0,19,0.00,,,0.00,374,Wunderground v.1.15,2013-10-03 23:49:00,
2013-10-03 16:59:00,76.6,31.2,29.97,NE,39,14.0,22.0,19,0.00,,,0.00,343,Wunderground v.1.15,2013-10-03 23:59:00,
2013-10-03 17:04:00,76.4,31.1,29.97,NE,41,14.0,22.0,19,0.00,,,0.00,327,Wunderground v.1.15,2013-10-04 00:04:00,
2013-10-03 17:14:00,76.6,32.5,29.97,NNE,27,11.0,13.0,20,0.00,,,0.00,294,Wunderground v.1.15,2013-10-04 00:14:00,
2013-10-03 17:19:00,76.5,33.6,29.97,SSW,213,12.0,15.0,21,0.00,,,0.00,276,Wunderground v.1.15,2013-10-04 00:19:00,
2013-10-03 17:29:00,76.3,33.5,29.97,NNE,30,12.0,16.0,21,0.00,,,0.00,239,Wunderground v.1.15,2013-10-04 00:29:00,
2013-10-03 17:39:00,76.1,32.1,29.97,NNE,33,11.0,14.0,20,0.00,,,0.00,199,Wunderground v.1.15,2013-10-04 00:39:00,
2013-10-03 17:44:00,75.9,33.1,29.97,NNE,21,11.0,14.0,21,0.00,,,0.00,176,Wunderground v.1.15,2013-10-04 00:44:00,
2013-10-03 17:49:00,75.7,33.0,29.97,NE,36,11.0,11.0,21,0.00,,,0.00,153,Wunderground v.1.15,2013-10-04 00:49:00,
2013-10-03 17:59:00,75.4,32.7,29.97,NNE,19,13.0,13.0,21,0.00,,,0.00,116,Wunderground v.1.15,2013-10-04 00:59:00,
2013-10-03 18:04:00,75.1,33.6,29.97,NNE,28,13.0,13.0,22,0.00,,,0.00,97,Wunderground v.1.15,2013-10-04 01:04:00,
2013-10-03 18:14:00,74.8,34.5,29.97,NNE,24,11.0,17.0,23,0.00,,,0.00,62,Wunderground v.1.15,2013-10-04 01:14:00,
2013-10-03 18:24:00,74.2,34.0,29.97,NE,47,13.0,15.0,23,0.00,,,0.00,35,Wunderground v.1.15,2013-10-04 01:24:00,
2013-10-03 18:29:00,73.9,33.7,29.97,NNE,15,13.0,18.0,23,0.00,,,0.00,25,Wunderground v.1.15,2013-10-04 01:29:00,
2013-10-03 18:34:00,73.6,33.5,29.97,North,3,12.0,18.0,23,0.00,,,0.00,16,Wunderground v.1.15,2013-10-04 01:34:00,
2013-10-03 18:44:00,72.9,34.0,29.97,NE,49,11.0,12.0,24,0.00,,,0.00,7,Wunderground v.1.15,2013-10-04 01:44:00,
2013-10-03 18:54:00,72.2,34.4,29.97,NNE,31,9.0,11.0,25,0.00,,,0.00,0,Wunderground v.1.15,2013-10-04 01:54:00,
2013-10-03 18:59:00,71.9,34.1,29.97,NNE,13,10.0,12.0,25,0.00,,,0.00,0,Wunderground v.1.15,2013-10-04 01:59:00,
2013-10-03 19:04:00,71.8,34.1,29.97,NNE,31,10.0,15.0,25,0.00,,,0.00,0,Wunderground v.1.15,2013-10-04 02:04:00,
2013-10-03 19:09:00,71.6,33.9,29.97,NNE,31,9.0,9.0,25,0.00,,,0.00,0,Wunderground v.1.15,2013-10-04 02:09:00,
2013-10-03 19:19:00,71.4,33.7,29.98,NNE,19,11.0,11.0,25,0.00,,,0.00,0,Wunderground v.1.15,2013-10-04 02:19:00,
2013-10-03 19:29:00,71.3,33.6,29.98,NNE,20,11.0,11.0,25,0.00,,,0.00,0,Wunderground v.1.15,2013-10-04 02:29:00,
2013-10-03 19:39:00,71.1,33.5,29.98,NNE,12,10.0,10.0,25,0.00,,,0.00,0,Wunderground v.1.15,2013-10-04 02:39:00,
2013-10-03 19:44:00,71.0,33.4,29.98,NNE,20,10.0,14.0,25,0.00,,,0.00,0,Wunderground v.1.15,2013-10-04 02:44:00,
2013-10-03 19:49:00,70.9,33.3,29.98,NNE,22,12.0,19.0,25,0.00,,,0.00,0,Wunderground v.1.15,2013-10-04 02:49:00,
2013-10-03 19:59:00,70.9,33.3,29.98,NNE,22,12.0,12.0,25,0.00,,,0.00,0,Wunderground v.1.15,2013-10-04 02:59:00,
2013-10-03 20:04:00,70.8,33.2,29.98,NNE,14,11.0,12.0,25,0.00,,,0.00,0,Wunderground v.1.15,2013-10-04 03:04:00,
2013-10-03 20:14:00,70.6,33.0,29.99,NNE,22,9.0,11.0,25,0.00,,,0.00,0,Wunderground v.1.15,2013-10-04 03:14:00,
2013-10-03 20:24:00,70.4,32.9,29.99,North,10,9.0,13.0,25,0.00,,,0.00,0,Wunderground v.1.15,2013-10-04 03:24:00,
2013-10-03 20:29:00,70.4,32.9,29.99,NNE,14,10.0,11.0,25,0.00,,,0.00,0,Wunderground v.1.15,2013-10-04 03:29:00,
2013-10-03 20:34:00,70.3,32.8,29.99,North,6,11.0,14.0,25,0.00,,,0.00,0,Wunderground v.1.15,2013-10-04 03:34:00,
2013-10-03 20:44:00,70.1,33.6,29.99,North,1,12.0,18.0,26,0.00,,,0.00,0,Wunderground v.1.15,2013-10-04 03:44:00,
2013-10-03 20:49:00,70.0,33.5,29.99,NNE,20,12.0,12.0,26,0.00,,,0.00,0,Wunderground v.1.15,2013-10-04 03:49:00,
2013-10-03 20:59:00,69.8,34.3,29.99,NE,40,12.0,13.0,27,0.00,,,0.00,0,Wunderground v.1.15,2013-10-04 03:59:00,
2013-10-03 21:39:00,69.4,34.9,29.99,NNE,24,13.0,20.0,28,0.00,,,0.00,0,Wunderground v.1.15,2013-10-04 04:39:00,
2013-10-03 21:44:00,69.3,35.7,29.99,North,11,13.0,20.0,29,0.00,,,0.00,0,Wunderground v.1.15,2013-10-04 04:44:00,
2013-10-03 21:49:00,69.2,36.4,29.99,NNE,12,14.0,14.0,30,0.00,,,0.00,0,Wunderground v.1.15,2013-10-04 04:49:00,
2013-10-03 21:54:00,69.1,37.2,29.99,NNE,29,13.0,15.0,31,0.00,,,0.00,0,Wunderground v.1.15,2013-10-04 04:54:00,
2013-10-03 22:04:00,69.0,37.1,29.99,NNE,31,14.0,17.0,31,0.00,,,0.00,0,Wunderground v.1.15,2013-10-04 05:04:00,
2013-10-03 22:14:00,69.1,35.5,29.99,NNE,24,15.0,19.0,29,0.00,,,0.00,0,Wunderground v.1.15,2013-10-04 05:14:00,
2013-10-03 22:19:00,69.3,34.8,29.99,NNE,32,16.0,20.0,28,0.00,,,0.00,0,Wunderground v.1.15,2013-10-04 05:19:00,
2013-10-03 22:29:00,69.4,34.9,29.99,NNE,15,15.0,22.0,28,0.00,,,0.00,0,Wunderground v.1.15,2013-10-04 05:29:00,
2013-10-03 22:34:00,69.3,35.7,29.99,NNE,13,14.0,22.0,29,0.00,,,0.00,0,Wunderground v.1.15,2013-10-04 05:34:00,
2013-10-03 22:44:00,69.2,35.6,29.99,North,360,13.0,19.0,29,0.00,,,0.00,0,Wunderground v.1.15,2013-10-04 05:44:00,
2013-10-03 22:49:00,69.1,35.5,29.99,NNE,28,13.0,13.0,29,0.00,,,0.00,0,Wunderground v.1.15,2013-10-04 05:49:00,
2013-10-03 22:59:00,69.0,35.4,30.00,NNE,20,13.0,15.0,29,0.00,,,0.00,0,Wunderground v.1.15,2013-10-04 05:59:00,
2013-10-03 23:09:00,68.8,36.1,30.00,NNE,33,13.0,13.0,30,0.00,,,0.00,0,Wunderground v.1.15,2013-10-04 06:09:00,
2013-10-03 23:14:00,68.7,36.0,30.00,North,10,13.0,15.0,30,0.00,,,0.00,0,Wunderground v.1.15,2013-10-04 06:14:00,
2013-10-03 23:19:00,68.6,35.9,30.00,NNE,26,14.0,18.0,30,0.00,,,0.00,0,Wunderground v.1.15,2013-10-04 06:19:00,
2013-10-03 23:29:00,68.5,36.7,29.99,NNE,26,14.0,15.0,31,0.00,,,0.00,0,Wunderground v.1.15,2013-10-04 06:29:00,
2013-10-03 23:34:00,68.3,36.5,30.00,NNE,16,14.0,17.0,31,0.00,,,0.00,0,Wunderground v.1.15,2013-10-04 06:34:00,
2013-10-03 23:44:00,68.1,36.3,30.00,NNE,25,13.0,15.0,31,0.00,,,0.00,0,Wunderground v.1.15,2013-10-04 06:44:00,
2013-10-03 23:49:00,68.0,37.0,30.00,NNE,31,11.0,15.0,32,0.00,,,0.00,0,Wunderground v.1.15,2013-10-04 06:49:00,
2013-10-03 23:54:00,67.9,37.7,30.00,NNE,31,11.0,15.0,33,0.00,,,0.00,0,Wunderground v.1.15,2013-10-04 06:54:00,